Regional Weather Roundup
Issued by NWS

Home | Current Version | Previous Version | Graphics & Text | Print | Product List | Glossary On
Versions: 1 2 3 4 5 6 7 8 9 10 11 12 13 14 15 16 17 18 19 20 21 22 23 24 25 26 27 28 29 30 31 32 33 34 35 36 37 38 39 40 41 42 43 44 45 46 47 48 49 50
000
ASUS45 KTFX 192219
RWRMT
MONTANA HOURLY WEATHER ROUNDUP
NATIONAL WEATHER SERVICE GREAT FALLS MT
319 PM MST FRI DEC 19 2014

NOTE: "FAIR" INDICATES FEW OR NO CLOUDS BELOW 12000 FEET WITH NO
SIGNIFICANT WEATHER AND/OR OBSTRUCTIONS TO VISIBILITY.

* THESE STATIONS ARE NOT UNDER NWS QUALITY CONTROL. THEY DO NOT
   REPORT WEATHER SUCH AS PRECIPITATION OR FOG.

MTZ001>007-043-192300-
WEST OF THE DIVIDE
CITY           SKY/WX    TMP DP  RH WIND       PRES   REMARKS
KALISPELL      LGT RAIN  36  34  92 SW8       29.86F VSB 2    WCI  30
MISSOULA       FOG       32  30  92 W3        29.92S
BUTTE          CLOUDY    36  27  70 NE6       29.88F WCI  31
MULLAN PASS    SNOW      30  27  89 CALM      29.84R VSB M1/4
* ESSEX        N/A       34  33  96 N2         N/A
* EUREKA APT   CLOUDY    41  36  82 SE12      29.84S
* HAMILTON APT CLOUDY    39  34  82 S15       29.90S WCI  31
* LIBBY APT    CLOUDY   N/A N/A N/A CALM      29.89R
* LINCOLN      N/A       35  30  82 S2         N/A
* LOOKOUT PASS N/A       32  32 100 NE4        N/A
* POLSON       N/A       36  36 100 SE1        N/A
* RONAN APT    CLOUDY    34  32  92 N/A        N/A
* SEELEY LAKE  N/A       33  31  92 N/A        N/A
* THOMP F APT  CLOUDY    27  26  96 S9G15      N/A   WCI  18
$$

MTZ008-052>055-192300-
SOUTHWEST MONTANA
CITY           SKY/WX    TMP DP  RH WIND       PRES   REMARKS
BOZEMAN        CLOUDY    36  27  70 SE8       29.89F WCI  30
DILLON         CLOUDY    36  28  73 S3        29.91S
* W YELLOWSTON PTSUNNY   30  25  82 SW3G9      N/A
* THREE FORKS  PTSUNNY   43  43 100 S20G26     N/A
* BOULDER HILL N/A       35  22  59 S9         N/A   WCI  28
* MONIDA PASS  N/A       26  26 100 SE16G24    N/A   WCI  13
* RAYNOLDS PAS N/A       30  11  45 S10G18     N/A   WCI  21
* WHITEHALL    N/A       41  27  58 SE4G15     N/A
* WISE RIVER   N/A       35  27  73 W3         N/A
$$

MTZ009>010-012-014-046-048-049-054-192300-
EAST SLOPES AND CENTRAL MONTANA
CITY           SKY/WX    TMP DP  RH WIND       PRES   REMARKS
CUT BANK       PTSUNNY   39  30  70 W14       29.74S WCI  31
GREAT FALLS    PTSUNNY   45  28  51 SW21      29.77S
HELENA         PTSUNNY   37  27  67 CALM      29.86F
MALMSTROM AFB  PTSUNNY   45  30  56 SW17G24   29.79F
* CONRAD       PTSUNNY   43  36  76 CALM       N/A
* DEARBORN     N/A       46  26  46 SW6G13     N/A
* EAST GLACIER N/A       39  28  65 W17G30     N/A   WCI  30
* MONARCH      N/A       41  19  41 SW20G27    N/A
* PENDROY      N/A       40  28  62 N6         N/A   WCI  36
* ROGERS PASS  N/A       32  29  89 SE10G16    N/A   WCI  24
* SWEET GRASS  N/A       32  28  85 SW12       N/A   WCI  23
* WHITE SULPH  N/A       39  25  57 S9G24      N/A   WCI  33
$$

MTZ011-013-016-021-035-040-045-047-050-051-192300-
NORTH CENTRAL MONTANA
CITY           SKY/WX    TMP DP  RH WIND       PRES   REMARKS
HAVRE          PTSUNNY   30  27  89 E7        29.79F WCI  23
LEWISTOWN      CLOUDY    39  27  62 E5        29.81S WCI  35
* N BAR RANCH  SUNNY     39  27  62 S6        29.83S WCI  35
* CHINOOK      PTSUNNY   30  28  92 E6        29.82F WCI  24
* CHESTER      N/A       36  31  82 N/A        N/A
* DENTON       N/A       40  29  65 SE3        N/A
* GEYSER       N/A       44  25  47 S4         N/A
* JUDITH GAP   N/A       41  25  53 SW15G20    N/A
* LOMA         N/A       38  31  76 E8         N/A   WCI  32
$$

MTZ017>020-022>027-061-062-192300-
NORTHEAST MONTANA
CITY           SKY/WX    TMP DP  RH WIND       PRES   REMARKS
GLASGOW        SUNNY     37  28  70 E6        29.86R WCI  32
GLENDIVE       SUNNY     39  25  57 S8        29.89S WCI  33
JORDAN         PTCLDY    45  28  51 S7        29.85R
SIDNEY         SUNNY     39  30  70 CALM      29.91S
WOLF POINT     SUNNY     41  28  60 CALM      29.88S
* BEAVER HILL  N/A       41  26  55 SW9        N/A
* CIRCLE       N/A       45  32  60 N/A        N/A
* LINDSAY DVD  N/A       43  27  53 S6         N/A
* NAVAJO       N/A       35  30  82 SW6        N/A   WCI  30
* PLENTYWOOD A SUNNY     27  25  92 SE5       29.89R WCI  21
* POPLAR APT   SUNNY     39  28  65 CALM      29.88S
* SACO         N/A       36  29  76 NE7        N/A   WCI  30
$$

MTZ028>042-056>058-192300-
SOUTHCENTRAL AND SOUTHEAST MONTANA
CITY           SKY/WX    TMP DP  RH WIND       PRES   REMARKS
BAKER          SUNNY     43  25  49 W7        29.90R
BILLINGS       PTSUNNY   39  21  48 SW9       29.87S WCI  33
LIVINGSTON     PTCLDY    46  25  44 SW28G38   29.85R
MILES CITY     PTCLDY    43  27  53 SW5       29.88S
* LAUREL APT   PTCLDY    43  16  34 S13G20     N/A
* ROUNDUP APT  PTSUNNY   45  19  35 S5         N/A
* ALZADA       N/A       42  24  49 W2         N/A
* HYSHAM       N/A       39  18  43 W4         N/A
* LAME DEER    N/A       41  18  39 W7         N/A
* REED POINT   N/A       41  24  51 N/A        N/A
* ROSCOE HILL  N/A       45  16  31 W3G8       N/A
$$

REGIONAL REPORTS...DAKOTAS
CITY           SKY/WX    TMP DP  RH WIND       PRES   REMARKS
WILLISTON      FOG       27  25  92 S3        29.91R
DICKINSON      SUNNY     43  28  56 W6        29.87R
BEACH          SUNNY     41  27  58 SW5       29.89R
CROSBY         FOG       25  25 100 NW5       29.93R VSB 3    WCI  19
TIOGA          FOG       25  25 100 W3        29.93R VSB M1/4
WATFORD CITY   SUNNY     36  30  79 W3        29.89R
BISMARCK       PTCLDY    37  27  67 E3        29.93R
GRAND FORKS    FOG       28  27  96 S8        30.01R VSB 1 1/4 WCI  20
FARGO          FOG       30  28  92 S14       30.02S VSB 3    WCI  19
BUFFALO SD     SUNNY     45  23  42 N3        29.84R
RAPID CITY     CLOUDY    45  27  49 SE6       29.95R
$$

REGIONAL REPORTS...WYOMING/IDAHO/WASHINGTON
CITY           SKY/WX    TMP DP  RH WIND       PRES   REMARKS
GILLETTE       CLOUDY    36  21  54 S7        29.90F WCI  30
SHERIDAN       PTCLDY    41  21  45 SE3       29.88S
CODY           PTSUNNY   37  19  48 W10G21    29.89R WCI  30
YELLOWSTONE LA PTCLDY    27  21  78 VRB6      30.03S WCI  20
SALMON         CLOUDY    36  27  70 CALM      29.96S
MULLAN PASS    SNOW      30  27  89 CALM      29.84S VSB M1/4
SAND POINT     N/A       37  37 100 CALM      29.90R
SPOKANE        CLOUDY    41  37  86 SW15      29.89S
$$

REGIONAL REPORTS...ALBERTA
CITY           SKY/WX    TMP DP  RH WIND       PRES   REMARKS
CALGARY        PTSUNNY   37  27  67 SW6       29.61R WCI  32
LETHBRIDGE     PTSUNNY   37  32  82 SW8       29.68S WCI  31
MEDICINE HAT   PTSUNNY   36  30  79 S5        29.70F WCI  32
EDMONTON       CLOUDY    25  19  78 SE6       29.65R WCI  18
WATERTON GATE  N/A       39  30  70 SW25G33    N/A   WCI  28
CARDSTON       N/A       45  32  60 SW3        N/A
MILK RIVER     N/A       36  34  92 SW8        N/A   WCI  30
$$

REGIONAL REPORTS...SASKATCHEWAN
CITY           SKY/WX    TMP DP  RH WIND       PRES   REMARKS
SWIFT CURRENT  SUNNY     34  30  85 E6        29.78S WCI  29
REGINA         FOG       18  16  92 NW2       29.92R VSB 3
VAL MARIE      N/A       30  28  92 N1         N/A
ASSINIBOIA     N/A       21  16  81 E5         N/A   WCI  14
CORONACH       N/A       34  27  76 SE3        N/A

$$



USA.gov is the U.S. government's official web portal to all federal, state and local government web resources and services.